Weather History for Marietta, GA

Change the Weather History Date:

Saturday, January 18, 2014

  Actual Average Record
Temperature  
Mean Temperature 32 °F -  
Max Temperature 44 °F 49 °F 60 °F (1999)
Min Temperature 21 °F 31 °F 12 °F (2003)
Degree Days  
Heating Degree Days 32    
Moisture  
Dew Point 11 °F    
Average Humidity 42    
Maximum Humidity 70    
Minimum Humidity 19    
Precipitation  
Precipitation 0.00 in - - ()
Sea Level Pressure  
Sea Level Pressure 30.11 in    
Wind  
Wind Speed 9 mph (WSW)    
Max Wind Speed 14 mph    
Max Gust Speed 18 mph    
Visibility 10 miles    
Events      
Averages and records for this station are not official NWS values.
T = Trace of Precipitation, MM = Missing Value Source: NWS Daily Summary

Daily Weather History Graph

Daily Weather History Graph

Search for Another Location

Airport:

Trip Planner

Search our weather history database for the weather conditions in past years. The results will help you decide how hot, cold, wet, or windy it might be!

Date:

Astronomy

Jan. 18, 2014 Rise Set
Actual Time 7:42 AM EST 5:55 PM EST
Civil Twilight 7:15 AM EST 6:22 PM EST
Nautical Twilight 6:44 AM EST 6:52 PM EST
Astronomical Twilight 6:14 AM EST 7:22 PM EST
Moon 8:26 PM EST 8:49 AM EST
Length of Visible Light 11h 06m
Length of Day
10h 12m
Waning Gibbous, 94% of the Moon is Illuminated
Jan 18
Waning Gibbous
Jan 24
Last Quarter
Jan 30
New
Feb 6
First Quarter
Feb 14
Full

Hourly Weather History & Observations

Time (EST) Temp. Windchill Dew Point Humidity Pressure Visibility Wind Dir Wind Speed Gust Speed Precip Events Conditions
12:58 AM 25.5 °F 17.8 °F 14.4 °F 63% 30.10 in 10.0 mi West 6.9 mph - N/A   Clear
1:58 AM 26.4 °F 18.0 °F 14.4 °F 60% 30.09 in 10.0 mi West 8.1 mph - N/A   Clear
2:58 AM 27.5 °F 16.3 °F 12.9 °F 54% 30.10 in 10.0 mi West 13.8 mph - N/A   Clear
3:58 AM 27.3 °F 16.6 °F 12.4 °F 53% 30.12 in 10.0 mi WNW 12.7 mph - N/A   Clear
4:58 AM 26.1 °F 15.6 °F 12.9 °F 58% 30.13 in 10.0 mi WNW 11.5 mph - N/A   Clear
5:58 AM 25.2 °F 13.9 °F 13.3 °F 61% 30.13 in 10.0 mi WNW 12.7 mph 18.4 mph N/A   Clear
6:58 AM 24.1 °F 16.0 °F 12.4 °F 61% 30.15 in 10.0 mi WNW 6.9 mph - N/A   Clear
7:58 AM 21.2 °F 12.6 °F 12.7 °F 70% 30.16 in 10.0 mi West 6.9 mph - N/A   Clear
8:58 AM 26.2 °F 16.4 °F 13.6 °F 59% 30.19 in 10.0 mi West 10.4 mph - N/A   Clear
9:58 AM 29.3 °F 20.8 °F 12.7 °F 50% 30.22 in 10.0 mi WNW 9.2 mph - N/A   Clear
10:58 AM 31.8 °F 22.8 °F 11.5 °F 43% 30.22 in 10.0 mi West 11.5 mph - N/A   Clear
11:58 AM 34.7 °F 28.1 °F 11.1 °F 38% 30.22 in 10.0 mi West 8.1 mph - N/A   Clear
12:58 PM 38.1 °F 31.7 °F 10.2 °F 32% 30.17 in 10.0 mi West 9.2 mph - N/A   Clear
1:58 PM 40.6 °F 35.4 °F 9.3 °F 28% 30.12 in 10.0 mi West 8.1 mph - N/A   Clear
2:58 PM 43.3 °F 37.7 °F 7.7 °F 23% 30.10 in 10.0 mi WSW 10.4 mph - N/A   Clear
3:58 PM 44.1 °F 38.1 °F 6.3 °F 21% 30.08 in 10.0 mi SW 11.5 mph - N/A   Clear
4:58 PM 44.1 °F 39.5 °F 3.6 °F 19% 30.06 in 10.0 mi SSW 8.1 mph - N/A   Clear
5:58 PM 41.5 °F 38.6 °F 6.4 °F 24% 30.05 in 10.0 mi SSW 4.6 mph - N/A   Partly Cloudy
6:58 PM 40.1 °F 36.1 °F 7.9 °F 27% 30.05 in 10.0 mi South 5.8 mph - N/A   Mostly Cloudy
7:58 PM 39.0 °F 35.7 °F 8.6 °F 29% 30.04 in 10.0 mi South 4.6 mph - N/A   Scattered Clouds
8:58 PM 38.5 °F 33.4 °F 9.5 °F 30% 30.02 in 10.0 mi SSW 6.9 mph - N/A   Scattered Clouds
9:58 PM 37.2 °F 34.7 °F 10.0 °F 33% 30.03 in 10.0 mi SSW 3.5 mph - N/A   Mostly Cloudy
10:58 PM 37.8 °F 33.3 °F 11.1 °F 33% 30.02 in 10.0 mi SSW 5.8 mph - N/A   Mostly Cloudy
11:58 PM 38.7 °F 32.9 °F 12.2 °F 34% 30.00 in 10.0 mi SSW 8.1 mph - N/A   Overcast